Regional Weather Roundup
Issued by NWS

Home | Current Version | Previous Version | Graphics & Text | Print | Product List | Glossary On
Versions: 1 2 3 4 5 6 7 8 9 10 11 12 13 14 15 16 17 18 19 20 21 22 23 24 25 26 27 28 29 30 31 32 33 34 35 36 37 38 39 40 41 42 43 44 45 46 47 48 49 50
000
ASUS43 KLSX 281507
RWRMO

WEATHER SUMMARY FOR MISSOURI
NATIONAL WEATHER SERVICE SPRINGFIELD MO
900 AM CST FRI NOV 28 2014

NOTE: "FAIR" INDICATES FEW OR NO CLOUDS BELOW 12,000 FEET WITH NO
       SIGNIFICANT WEATHER AND/OR OBSTRUCTIONS TO VISIBILITY.
       CURRENT SKY AND/OR WEATHER CONDITIONS ARE NOT AVAILABLE FOR
       CHILLICOTHE AND FARMINGTON.

MOZ001>031-035>038-043-044-053-054-281600-
...NORTHERN AND WESTERN MISSOURI...

CITY           SKY/WX    TMP DP  RH WIND       PRES   REMARKS
KANSAS CTY INT MOSUNNY   40  27  59 SW18G25   29.97F
KANSAS C DTWN  SUNNY     43  27  53 SW13      29.99F
LEE`S SUMMIT   SUNNY     40  27  59 SW12      30.00F
ST JOSEPH      SUNNY     38  27  64 S9        29.97F
CHILLICOTHE      N/A     37  26  64 S9        30.01F
KIRKSVILLE     SUNNY     30  25  81 S10       30.03F WCI  21

$$
MOZ066>068-077>081-088>096-101>105-281600-
...SOUTHWEST MISSOURI...

CITY           SKY/WX    TMP DP  RH WIND       PRES   REMARKS
SPRINGFIELD    SUNNY     41  27  57 S20G31    30.10F
JOPLIN         SUNNY     47  28  47 S21G31    30.08F

$$
MOZ032>034-039>042-045>050-055>058-069>072-281600-
...CENTRAL MISSOURI...

CITY           SKY/WX    TMP DP  RH WIND       PRES   REMARKS
COLUMBIA       SUNNY     37  27  67 S14       30.08F WCI  28
JEFFERSON CITY SUNNY     38  27  64 SE8       30.11F
ROLLA          SUNNY     38  27  64 S18       30.11F WCI  28
SEDALIA        SUNNY     42  27  55 S18G25    30.05S
WHITEMAN AFB   SUNNY     41  28  59 SW17      30.02F
WARRENSBURG    SUNNY     39  28  65 S13       30.03F
OSAGE BEACH    SUNNY     39  27  60 S13       30.11S

$$
MOZ051-052-059>065-281600-
...EAST CENTRAL MISSOURI...

CITY           SKY/WX    TMP DP  RH WIND       PRES   REMARKS
ST LOUIS INTL  MOSUNNY   33  27  78 S12       30.19F WCI  24
SPIRIT OF STL  SUNNY     35  28  75 S9        30.17F WCI  28
ST CHARLES     SUNNY     32  27  81 SE9       30.19F WCI  24

$$
MOZ072>076-082>087-097>100-106>115-281600-
...SOUTH CENTRAL AND SOUTHEAST MISSOURI...

CITY           SKY/WX    TMP DP  RH WIND       PRES   REMARKS
CAPE GIRARDEAU SUNNY     33  27  78 S13       30.34F WCI  24
FARMINGTON     SUNNY     34  30  86 SE15      30.25S WCI  24
POPLAR BLUFF   SUNNY     34  29  82 S9        30.33S WCI  27
WEST PLAINS    SUNNY     36  28  73 S8        30.24R WCI  30

$$



USA.gov is the U.S. government's official web portal to all federal, state and local government web resources and services.